Location: Nairn
(57.5833°N, 3.8667°W)
Time: 16:59:50
(UTC+00:00)

S-56A Canister/Altair - Pass Details

Date: 03 December 2020
Orbit: 633 x 2499 km, 38.9° (Epoch: 19 January)

Event Time Altitude Azimuth Distance (km) Brightness Sun altitude
Rises 23:16:29 0° 261° (W) 4,857 11.7 -53.6°
Enters shadow 23:17:05 - 259° (W) 4,698 11.6 -53.6°
Reaches altitude 10° 23:23:37 10° 227° (SW) 3,270 - -53.9°
Maximum altitude 23:24:56 10° 218° (SW) 3,121 - -53.9°
Drops below altitude 10° 23:26:11 10° 208° (SSW) 3,048 - -54.0°
Sets 23:31:31 0° 169° (S) 3,549 - -54.1°
